Location: Oberkirch
(48.5323°N, 8.0787°E)
Time: 20:00:13
(UTC+00:00)

Tiros 1 - Pass Details

Date: 18 February 2026
Orbit: 618 x 649 km, 48.4° (Epoch: 5 March)

Event Time Altitude Azimuth Distance (km) Brightness Sun altitude
Rises 06:41:46 0° 188° (S) 2,907 10.7 1.0°
Reaches altitude 10° 06:45:29 10° 158° (SSE) 1,997 10.4 1.6°
Maximum altitude 06:47:14 12° 135° (SE) 1,862 10.9 1.9°
Drops below altitude 10° 06:48:59 10° 113° (ESE) 1,995 12.3 2.1°
Sets 06:52:41 0° 82° (E) 2,899 11.8 2.7°
